Regional Weather Roundup
Issued by NWS Newport/Morehead, NC

Current Version | Previous Version | Graphics & Text | Print | Product List | Glossary On
Versions: 1 2 3 4 5 6 7 8 9 10 11 12 13 14 15 16 17 18 19 20 21 22 23 24 25 26 27 28 29 30 31 32 33 34 35 36 37 38 39 40 41 42 43 44 45 46 47 48 49 50
000 ASUS42 KMHX 280813 RWRMHX WEATHER ROUNDUP FOR EASTERN NORTH CAROLINA NATIONAL WEATHER SERVICE NEWPORT/MOREHEAD CITY NC 400 AM EDT THU APR 28 2016 NOTE: "FAIR" INDICATES FEW OR NO CLOUDS BELOW 12,000 FEET WITH NO SIGNIFICANT WEATHER AND/OR OBSTRUCTIONS TO VISIBILITY NCZ015>017-031-032-045>047-102-103-280900- NORTH COAST CITY SKY/WX TMP DP RH WIND PRES REMARKS EDENTON RAIN 66 66 100 SW7 29.92R ELIZABETH CITY RAIN 58 57 97 CALM 29.91R FOG KITTY HAWK RAIN 57 57 99 CALM 29.90R MANTEO NOT AVBL $$ NCZ045>047-081-094-103-104-280900- CENTRAL COAST CITY SKY/WX TMP DP RH WIND PRES REMARKS FRISCO CLOUDY 68 66 93 SW6 29.91S SWANQUARTER NOT AVBL $$ NCZ095-097-098-100-101-280900- SOUTHERN COAST CITY SKY/WX TMP DP RH WIND PRES REMARKS BEAUFORT CLOUDY 68 67 96 SW8 29.91S CEDAR ISLAND NOT AVBL JACKSONVILLE MOCLDY 68 64 87 SW3 29.89S PINEY ISLAND MOSUNNY N/A N/A N/A SW6 29.90S WILMINGTON PTCLDY 70 66 87 SW10 29.90S $$ NCZ011>013-027>030-043-044-078>080-089-090>093-098-280900- COASTAL PLAIN CITY SKY/WX TMP DP RH WIND PRES REMARKS AHOSKIE HVY RAIN 63 62 97 CALM 29.90R CLINTON CLOUDY 66 61 84 CALM 29.89S ELIZABETHTOWN CLOUDY 66 63 90 SE3 29.89S GOLDSBORO CLOUDY 66 63 88 S3 29.87F GREENVILLE CLOUDY 64 64 100 SE3 29.92S HAVELOCK CLOUDY 69 65 86 SW9 29.91R KENANSVILLE CLOUDY 67 61 79 CALM 29.90S KINSTON CLOUDY 66 59 78 CALM 29.91R NEW BERN MOCLDY 66 62 87 S3 29.91R RICHLANDS MOCLDY 67 65 93 SW6 29.90S ROCKY MOUNT MOCLDY 66 65 96 VRB3 29.89S WASHINGTON MOCLDY 64 61 92 E6 29.91R WHITEVILLE CLOUDY 67 64 89 S5 29.90R $$ AMZ130-135-150-152-154-156-158-170-250-252-270-ANZ085-086-088-633-658-670-280900- MARINE OBSERVATIONS STATION/POSITION TIME TEMP WIND PRES WAVE SWELL AIR SEA DIR/SP/G HT/PER HT/PER (UTC) (F) (DEG/KT/KT) (MB) (FT/S) (FT/S) CHESAPEAKE LIGHT 0800 54 340/ 2/ 2 1013.4 64 E VA BEACH 0750 54 53 150/ 6/ 6 1011.9 4/ 6 3/ 6 DUCK 0700 55 63 30/ 3/ 3 1011.8 2 E DUCK 0711 57 N/A 3/ 7 OREGON INLET 0700 58 70 40/ 2/ 3 1012.2 13E OREGON INLT 0800 59 N/A 4/ 6 3/ 6 HATTERAS CG 0700 68 69 210/ 3/ 6 1012.6 DIAMOND BUOY 0750 71 71 280/ 10/ 12 1013.0 4/ 6 3/ 6 CAPE LOOKOUT 0800 68 210/ 7/ 8 1012.4 BEAUFORT LAB 0700 68 67 220/ 6/ 8 1011.9 30 SE NEW RVR IN 0725 66 N/A 4/ 5 27 SE WRIGHTSVLE 0708 71 69 230/ 10/ 14 1015.7 5 SE WRIGHTSVLE 0708 68 66 220/ 10/ 12 1013.2 225 S CAPE HAT 0750 70 70 180/ 10/ 10 1015.4 2/ 9 2/ 9 41 SE CHARLESTON 0750 73 72 200/ 10/ 12 1012.6 3/ 5 2/ 5 $$

USA.gov is the U.S. government's official web portal to all federal, state and local government web resources and services.